Regional Weather Roundup
Issued by NWS

Home | Current Version | Previous Version | Text Only | Print | Product List | Glossary Off
Versions: 1 2 3 4 5 6 7 8 9 10 11 12 13 14 15 16 17 18 19 20 21 22 23 24 25 26 27 28 29 30 31 32 33 34 35 36 37 38 39 40 41 42 43 44 45 46 47 48 49 50

860
ASUS43 KOAX 270910
RWRNE

WEATHER ROUNDUP FOR NEBRASKA
NATIONAL WEATHER SERVICE OMAHA NE
400 AM CDT FRI MAY 27 2016

NOTES: SATELLITE DATA IS BEING USED TO AUGMENT CLOUD COVER ABOVE
       12000 FEET.
       "FAIR" INDICATES FEW OR NO CLOUDS BELOW 12,000 FEET WITH NO
       SIGNIFICANT WEATHER AND/OR OBSTRUCTIONS TO VISIBILITY.

  * THESE STATIONS DO NOT REPORT WEATHER SUCH AS RAIN...SNOW OR FOG.

NEZ001>004-019>022-054>056-271000-
NEBRASKA PANHANDLE

CITY           SKY/WX    TMP DP  RH WIND       PRES   REMARKS
SCOTTSBLUFF    CLOUDY    50  44  80 NW5       29.83F
ALLIANCE       PTCLDY    49  47  93 N12       29.81S
CHADRON        MOCLDY    49  45  86 CALM      29.84F
KIMBALL        CLOUDY    48  44  83 NW13      29.83F
SIDNEY         LGT RAIN  50  48  93 CALM      29.81S
$$

NEZ057>060-069>072-079>082-271000-
SOUTHWEST NEBRASKA

CITY           SKY/WX    TMP DP  RH WIND       PRES   REMARKS
NORTH PLATTE   MOCLDY    56  54  93 E9        29.75R
IMPERIAL       CLOUDY    53  50  89 S7        29.75F
LEXINGTON      MOCLDY    58  55  90 SE9       29.74F
MCCOOK         CLOUDY    54  52  93 SE3       29.71F
OGALLALA       CLOUDY    55  51  86 E3        29.78R
$$

NEZ005>010-023>029-035>040-094-271000-
NORTH CENTRAL NEBRASKA

CITY           SKY/WX    TMP DP  RH WIND       PRES   REMARKS
VALENTINE      LGT RAIN  56  51  84 E5        29.79F
AINSWORTH      CLOUDY    55  53  93 CALM      29.78F
BROKEN BOW     CLOUDY    58  55  90 NW6       29.75R
O`NEILL        CLOUDY    60  57  91 CALM      29.75F
ORD            CLOUDY    59  56  89 N9        29.73R
THEDFORD       LGT RAIN  56  53  89 NE6       29.79F
$$

NEZ041-046>049-061>064-073>077-083>087-271000-
SOUTH CENTRAL NEBRASKA

CITY           SKY/WX    TMP DP  RH WIND       PRES   REMARKS
GRAND ISLAND   CLOUDY    59  55  87 S12       29.69F
AURORA         MOCLDY    59  57  93 S10       29.70R
HASTINGS       CLOUDY    57  56  96 S7        29.71F
HEBRON         CLOUDY    60  58  96 S9        29.70F
HOLDREGE       CLOUDY    57  55  92 SE12G21   29.71F
KEARNEY *      CLOUDY    55  54  94 S8        29.72F
YORK           CLOUDY    59  57  94 SE15G22   29.72R
$$

NEZ011>018-030>034-042>045-271000-
NORTHEAST NEBRASKA

CITY           SKY/WX    TMP DP  RH WIND       PRES   REMARKS
NORFOLK        CLOUDY    59  56  89 E3        29.74F
ALBION         CLOUDY    60  56  88 E12       29.71F
BLAIR          CLOUDY    62  59  91 S14       29.76F
FREMONT        CLOUDY    61  59  92 S7        29.74F
TEKAMAH        CLOUDY    62  57  83 S14       29.73F
WAYNE          CLOUDY    61  58  89 CALM      29.77F
$$

NEZ050>053-065>068-078-088>093-271000-
SOUTHEAST NEBRASKA

CITY           SKY/WX    TMP DP  RH WIND       PRES   REMARKS
LINCOLN        CLOUDY    62  59  90 E17G35    29.67F
OMAHA EPPLEY   CLOUDY    63  59  87 S13       29.77F
BEATRICE       CLOUDY    61  58  91 SE15      29.68F
FALLS CITY     LGT RAIN  62  62 100 SW6       29.77F
NEBRASKA CITY  DRIZZLE   60  60 100 SE10      29.77F
PLATTSMOUTH    RAIN      63  62  97 SE12      29.76F
$$

NEZ044-045-051>053-067-271000-
OMAHA AREA

CITY           SKY/WX    TMP DP  RH WIND       PRES   REMARKS
OMAHA EPPLEY   CLOUDY    63  59  87 S13       29.77F
BLAIR          CLOUDY    62  59  91 S14       29.76F
FREMONT        CLOUDY    61  59  92 S7        29.74F
MILLARD        DRIZZLE   62  60  92 E6        29.75F
OFFUTT AFB     LGT RAIN  63  61  94 SE9       29.74F
PLATTSMOUTH    RAIN      63  62  97 SE12      29.76F
WAHOO          FAIR      61  59  93 S9        29.72F
$$




USA.gov is the U.S. government's official web portal to all federal, state and local government web resources and services.